Change the Weather History Date:

Monday, September 24, 2012

  Actual Average (KGEV) Record (KGEV)
Temperature  
Mean Temperature 52 °F -  
Max Temperature 68 °F 69 °F 83 °F (1970)
Min Temperature 37 °F 48 °F 26 °F (1983)
Degree Days  
Heating Degree Days 13    
Growing Degree Days 2 (Base 50)    
Moisture  
Dew Point 38 °F    
Average Humidity 67    
Maximum Humidity 95    
Minimum Humidity 25    
Precipitation  
Precipitation 0.00 in - - ()
Sea Level Pressure  
Sea Level Pressure 30.25 in    
Wind  
Wind Speed 1 mph (West)    
Max Wind Speed 7 mph    
Max Gust Speed -    
Visibility 10 miles    
Events      
Averages and records for this station are not official NWS values.
T = Trace of Precipitation, MM = Missing Value Source: NWS Daily Summary

Daily Weather History Graph

Daily Weather History Graph

Search for Another Location

Airport or City:

Trip Planner

Search our weather history database for the weather conditions in past years. The results will help you decide how hot, cold, wet, or windy it might be!

Date:

Astronomy

Sep. 24, 2012 Rise Set
Actual Time 7:15 AM EDT 7:18 PM EDT
Civil Twilight 6:49 AM EDT 7:44 PM EDT
Nautical Twilight 6:19 AM EDT 8:14 PM EDT
Astronomical Twilight 5:48 AM EDT 8:44 PM EDT
Moon 3:57 PM EDT (9/24) 1:37 AM EDT (9/24)
Length of Visible Light 12h 54m
Length of Day
12h 03m
Waxing Gibbous, 70% of the Moon is Illuminated
Sep 24
Waxing Gibbous
Sep 29
Full
Oct 8
Last Quarter
Oct 15
New
Oct 21
First Quarter

Hourly Weather History & Observations

Time (EDT) Temp. Windchill Dew Point Humidity Pressure Visibility Wind Dir Wind Speed Gust Speed Precip Events Conditions
12:15 AM 43.0 °F - 39.9 °F 89% 30.26 in 10.0 mi Calm Calm - N/A   Clear
12:35 AM 42.8 °F - 40.1 °F 90% 30.26 in 10.0 mi Calm Calm - N/A   Clear
12:55 AM 42.4 °F - 40.1 °F 91% 30.26 in 10.0 mi Calm Calm - N/A   Clear
1:15 AM 42.1 °F - 39.4 °F 90% 30.26 in 10.0 mi Calm Calm - N/A   Clear
1:35 AM 41.5 °F - 39.2 °F 91% 30.27 in 10.0 mi Calm Calm - N/A   Clear
1:55 AM 41.4 °F 39.4 °F 39.2 °F 92% 30.27 in 10.0 mi West 3.5 mph - N/A   Clear
2:15 AM 41.2 °F - 39.0 °F 92% 30.27 in 10.0 mi Calm Calm - N/A   Clear
2:35 AM 41.0 °F - 39.0 °F 93% 30.27 in 10.0 mi Calm Calm - N/A   Clear
2:55 AM 40.1 °F - 38.5 °F 94% 30.27 in 10.0 mi Calm Calm - N/A   Clear
3:15 AM 39.9 °F - 37.6 °F 91% 30.26 in 10.0 mi Calm Calm - N/A   Clear
3:35 AM 39.6 °F - 37.6 °F 93% 30.26 in 10.0 mi Calm Calm - N/A   Clear
3:55 AM 38.7 °F - 37.2 °F 95% 30.26 in 10.0 mi Calm Calm - N/A   Clear
4:15 AM 39.4 °F - 37.8 °F 94% 30.26 in 10.0 mi Calm Calm - N/A   Clear
4:35 AM 39.6 °F - 37.9 °F 94% 30.27 in 10.0 mi Calm Calm - N/A   Clear
4:55 AM 39.0 °F 36.8 °F 37.4 °F 94% 30.27 in 10.0 mi West 3.5 mph - N/A   Clear
5:15 AM 38.3 °F - 36.9 °F 95% 30.27 in 10.0 mi Calm Calm - N/A   Clear
5:35 AM 38.5 °F - 36.9 °F 94% 30.28 in 10.0 mi Calm Calm - N/A   Clear
5:55 AM 38.3 °F 35.9 °F 36.7 °F 94% 30.28 in 10.0 mi West 3.5 mph - N/A   Clear
6:15 AM 38.3 °F - 36.7 °F 94% 30.28 in 10.0 mi Calm Calm - N/A   Clear
6:35 AM 38.7 °F - 37.2 °F 95% 30.28 in 10.0 mi Calm Calm - N/A   Clear
6:55 AM 38.3 °F 34.8 °F 36.7 °F 94% 30.29 in 10.0 mi West 4.6 mph - N/A   Clear
7:15 AM 37.8 °F - 36.1 °F 94% 30.29 in 10.0 mi Calm Calm - N/A   Clear
7:35 AM 37.4 °F - 36.0 °F 95% 30.29 in 10.0 mi Calm Calm - N/A   Clear
7:55 AM 38.8 °F 36.5 °F 37.4 °F 95% 30.29 in 10.0 mi WSW 3.5 mph - N/A   Clear
8:15 AM 39.7 °F - 38.3 °F 95% 30.30 in 10.0 mi Calm Calm - N/A   Clear
8:35 AM 43.0 °F 40.3 °F 39.9 °F 89% 30.30 in 10.0 mi WSW 4.6 mph - N/A   Clear
8:55 AM 45.5 °F - 41.7 °F 87% 30.30 in 10.0 mi Calm Calm - N/A   Clear
9:15 AM 47.8 °F - 42.3 °F 81% 30.30 in 10.0 mi West 3.5 mph - N/A   Clear
9:35 AM 51.6 °F - 42.8 °F 72% 30.31 in 10.0 mi WSW 4.6 mph - N/A   Clear
9:55 AM 54.0 °F - 42.3 °F 65% 30.31 in 10.0 mi Calm Calm - N/A   Clear
10:35 AM 55.9 °F - 37.4 °F 50% 30.31 in 10.0 mi Calm Calm - N/A   Clear
10:55 AM 57.7 °F - 38.8 °F 49% 30.31 in 10.0 mi West 3.5 mph - N/A   Clear
11:15 AM 58.1 °F - 39.6 °F 50% 30.30 in 10.0 mi WSW 4.6 mph - N/A   Clear
11:35 AM 58.3 °F - 37.4 °F 46% 30.30 in 10.0 mi ENE 3.5 mph - N/A   Clear
11:55 AM 59.7 °F - 38.5 °F 45% 30.30 in 10.0 mi Calm Calm - N/A   Clear
12:15 PM 59.7 °F - 37.6 °F 44% 30.30 in 10.0 mi Calm Calm - N/A   Clear
12:35 PM 60.8 °F - 37.4 °F 42% 30.29 in 10.0 mi East 3.5 mph - N/A   Clear
12:55 PM 63.0 °F - 40.1 °F 43% 30.28 in 10.0 mi Calm Calm - N/A   Clear
1:15 PM 62.8 °F - 36.7 °F 38% 30.28 in 10.0 mi Calm Calm - N/A   Clear
1:35 PM 63.3 °F - 37.2 °F 38% 30.27 in 7.0 mi Calm Calm - N/A   Clear
1:55 PM 63.7 °F - 37.0 °F 37% 30.26 in 10.0 mi Calm Calm - N/A   Clear
2:15 PM 64.4 °F - 37.4 °F 37% 30.25 in 10.0 mi Calm Calm - N/A   Clear
2:35 PM 64.6 °F - 34.9 °F 33% 30.24 in 10.0 mi Calm Calm - N/A   Clear
2:55 PM 66.9 °F - 37.4 °F 34% 30.23 in 10.0 mi West 3.5 mph - N/A   Clear
3:15 PM 66.9 °F - 35.6 °F 31% 30.23 in 10.0 mi WNW 4.6 mph - N/A   Clear
3:35 PM 67.5 °F - 35.2 °F 30% 30.22 in 10.0 mi SW 4.6 mph - N/A   Clear
3:55 PM 66.7 °F - 32.0 °F 27% 30.22 in 10.0 mi SW 3.5 mph - N/A   Clear
4:15 PM 67.8 °F - 30.7 °F 25% 30.21 in 10.0 mi West 5.8 mph - N/A   Clear
4:35 PM 67.5 °F - 32.4 °F 27% 30.20 in 10.0 mi WNW 6.9 mph - N/A   Clear
4:55 PM 66.9 °F - 32.7 °F 28% 30.20 in 10.0 mi SW 3.5 mph - N/A   Clear
5:15 PM 67.1 °F - 34.2 °F 30% 30.20 in 10.0 mi WSW 5.8 mph - N/A   Clear
5:35 PM 66.4 °F - 33.1 °F 29% 30.20 in 10.0 mi WSW 5.8 mph - N/A   Clear
5:55 PM 65.5 °F - 32.0 °F 29% 30.20 in 10.0 mi West 6.9 mph - N/A   Clear
6:15 PM 64.8 °F - 35.8 °F 34% 30.20 in 10.0 mi West 5.8 mph - N/A   Clear
6:35 PM 63.5 °F - 34.3 °F 34% 30.20 in 10.0 mi West 5.8 mph - N/A   Clear
6:55 PM 62.8 °F - 32.7 °F 32% 30.20 in 10.0 mi Calm Calm - N/A   Clear
7:15 PM 59.9 °F - 36.3 °F 41% 30.20 in 10.0 mi Calm Calm - N/A   Clear
7:35 PM 57.2 °F - 41.4 °F 55% 30.20 in 10.0 mi Calm Calm - N/A   Clear
7:55 PM 54.5 °F - 43.3 °F 66% 30.21 in 10.0 mi Calm Calm - N/A   Clear
8:15 PM 52.5 °F - 44.2 °F 73% 30.22 in 10.0 mi Calm Calm - N/A   Clear
8:55 PM 50.7 °F - 43.0 °F 75% 30.22 in 10.0 mi Calm Calm - N/A   Clear
9:15 PM 49.6 °F - 42.8 °F 77% 30.22 in 10.0 mi Calm Calm - N/A   Clear
9:35 PM 49.3 °F - 42.4 °F 77% 30.23 in 10.0 mi Calm Calm - N/A   Clear
9:55 PM 48.9 °F - 42.3 °F 78% 30.23 in 10.0 mi Calm Calm - N/A   Clear
10:15 PM 47.7 °F - 42.1 °F 81% 30.23 in 10.0 mi Calm Calm - N/A   Clear
10:35 PM 47.8 °F - 42.1 °F 80% 30.23 in 10.0 mi Calm Calm - N/A   Clear
10:55 PM 47.3 °F - 42.3 °F 83% 30.23 in 10.0 mi Calm Calm - N/A   Clear
11:15 PM 46.8 °F - 42.3 °F 84% 30.23 in 10.0 mi ENE 3.5 mph - N/A   Clear
11:35 PM 46.4 °F - 42.6 °F 87% 30.23 in 10.0 mi Calm Calm - N/A   Clear
11:55 PM 45.9 °F - 42.4 °F 88% 30.23 in 10.0 mi Calm Calm - N/A   Clear